Location: Pinon Hills
(34.4429°N, 117.6403°W)
Time: 07:53:59
(UTC-07:00)

Daily predictions for brighter satellites

Satellite Brightness Start Highest point End
(mag) Time Altitude Azimuth Time Altitude Azimuth Time Altitude Azimuth
Cosmos 2322 3.9 19:42:51 10° SSW 19:48:29 79° WNW 19:54:12 10° NNE
SJ-6B 3.4 19:47:08 10° SE 19:50:55 39° ENE 19:54:39 10° N
Landsat 4 4.4 19:48:49 10° N 19:52:32 60° WNW 19:56:14 10° SSW
Cosmos 2074 Rocket 4.0 19:46:27 10° S 19:52:44 81° E 19:59:03 10° N
HJ-1C 3.6 19:49:53 10° SSE 19:53:07 51° ENE 19:56:24 10° N
SPOT 3 Rocket 3.9 19:48:09 10° S 19:53:18 71° WSW 19:58:28 10° NNW
Cosmos 1939 Rocket 4.4 19:51:32 10° ESE 19:54:14 18° ENE 19:56:57 10° NNE
Thor Agena Rocket 3.9 19:51:29 10° NNE 19:56:28 43° E 20:01:27 10° S
Sakura Rocket 4.1 19:56:23 10° SW 20:00:50 30° S 20:04:18 11° ESE
ATLAS 2A CENTAUR R/B 4.0 19:58:15 10° W 20:05:22 29° SSW 20:08:01 10° SE
Sich 1 3.7 20:02:03 10° NNE 20:05:57 34° E 20:09:49 10° SE
Cosmos 1300 3.7 20:03:08 10° SSW 20:06:51 50° W 20:10:35 10° N
NOSS 2-1 (C) 3.6 20:03:17 10° SW 20:06:53 65° WNW 20:10:38 10° NNE
NOSS 2-1 (D) 3.7 20:04:16 10° SW 20:07:52 61° WNW 20:11:37 10° NNE
Cosmos 1809 Rocket 4.5 20:04:58 10° S 20:11:02 65° E 20:17:09 10° NNE
ATLAS 2AS CENTAUR R/B 3.8 20:10:22 10° NNW 20:17:19 33° NE 20:22:42 14° ESE
Cosmos 2360 Rocket 4.4 20:17:37 10° WSW 20:22:26 29° WNW 20:27:17 10° N
Cosmos 1980 4.2 20:18:15 10° S 20:23:24 37° ESE 20:28:33 10° NE
H-2A R/B 2.7 20:20:57 10° W 20:24:14 18° SW 20:25:52 11° S
OAO 2 Rocket 3.3 20:19:07 10° W 20:24:22 88° S 20:28:16 18° E
CZ-2D R/B 3.4 20:21:29 10° S 20:25:16 73° W 20:29:04 10° NNW
Cosmos 1633 Rocket 3.4 20:22:21 10° N 20:26:30 44° E 20:29:56 14° SSE
Nadezhda 3 Rocket 4.1 20:20:35 10° N 20:26:51 61° E 20:33:06 10° SSE
Meteor 2-14 Rocket 4.4 20:22:51 10° S 20:28:52 68° E 20:34:56 10° NNE
Cosmos 1455 2.3 20:27:01 10° S 20:30:43 52° E 20:34:28 10° NNE
Meteor 1-27 4.3 20:25:26 10° S 20:31:03 57° E 20:36:37 10° NNE
Cosmos 2333 Rocket 2.1 20:26:20 10° SSW 20:31:59 76° ESE 20:37:38 10° NNE
ERS-2 2.1 20:29:18 10° SSE 20:32:57 84° WSW 20:36:39 10° NNW
Cosmos 1515 Rocket 4.2 20:29:50 13° SSE 20:33:16 34° E 20:37:18 10° NNE
Cosmos 2228 Rocket 3.7 20:30:12 14° SSE 20:33:25 33° E 20:37:23 10° NNE
Meteor 2-2 Rocket 4.3 20:30:19 10° S 20:36:06 89° W 20:42:05 10° N
Cosmos 1408 4.3 20:33:49 10° NNE 20:36:08 17° ENE 20:36:08 17° ENE
COSMOS 2428 3.5 20:31:38 10° SW 20:37:14 55° WNW 20:42:52 10° NNE
Meteor 2-16 Rocket 4.4 20:32:20 10° S 20:38:23 66° E 20:44:27 10° NNE
Meteor 2-15 Rocket 4.4 20:32:44 10° N 20:38:54 76° E 20:45:00 10° S
Cosmos 1892 2.6 20:37:16 10° N 20:41:09 76° E 20:44:02 17° SSE
Cosmos 1844 Rocket 2.7 20:38:06 10° NNW 20:43:48 89° WSW 20:48:27 16° SSE
SL-8 R/B 3.7 20:39:39 10° SW 20:44:26 87° NW 20:49:15 10° NE
Cosmos 1844 3.7 20:41:55 10° NNW 20:47:38 75° ENE 20:51:30 22° SSE
H-2A R/B 3.6 20:48:27 17° ENE 20:48:54 17° ENE 20:52:03 10° NNE
YAOGAN 6 2.7 20:46:47 17° S 20:49:29 73° W 20:53:07 10° NNW
Cosmos 2219 Rocket 2.7 20:44:43 10° SSW 20:50:19 63° WNW 20:55:56 10° NNE
Cosmos 2237 Rocket 2.1 20:45:26 10° S 20:50:56 61° ESE 20:56:28 10° NNE
NOSS 3-3 (C) 4.5 20:45:19 10° SW 20:51:12 61° NW 20:57:36 10° NNE
BREEZE-M DEB (TANK) 3.1 20:46:38 10° WNW 20:51:13 72° SW 20:52:42 33° SE
Cosmos 1328 Rocket 3.5 20:48:42 10° S 20:53:05 88° W 20:57:33 10° N
Genesis I 4.2 20:51:11 10° N 20:54:51 31° NE 20:55:26 30° ENE
Cosmos 1371 Rocket 4.4 20:52:00 19° SSE 20:55:19 40° ESE 21:00:18 10° NNE
Resurs 01 Rocket 1.6 20:53:38 19° S 20:56:50 83° W 21:01:18 10° NNW
USA 267 3.6 20:57:11 10° ENE 21:03:10 37° SE 21:09:07 10° SSW
Cosmos 2278 Rocket 2.7 20:58:34 10° N 21:03:56 42° ENE 21:05:28 35° E
OAO 1 4.5 20:58:48 10° W 21:04:18 78° SSW 21:06:22 39° ESE
NOAA 11 4.1 21:02:20 28° SSE 21:05:19 73° ENE 21:10:48 10° N
ATLAS CENTAUR R/B 2.6 21:03:29 10° SW 21:06:54 38° WNW 21:10:26 10° NNE
Cosmos 2251 Rocket 4.2 21:02:08 10° NNW 21:07:22 52° WSW 21:11:37 15° S
Cosmos 1470 Rocket 3.5 21:04:22 10° N 21:08:46 70° E 21:09:51 49° SSE
Cosmos 1959 Rocket 4.4 21:07:36 20° S 21:11:56 65° E 21:17:59 10° NNE
Cosmos 1727 Rocket 4.5 21:10:00 10° NNE 21:15:40 37° ENE 21:16:20 36° E
Cosmos 2056 Rocket 3.7 21:15:54 46° SE 21:16:52 52° ESE 21:22:07 10° NNE
ASTRO E2 4.4 21:15:19 10° SW 21:17:03 21° SSW 21:17:03 21° SSW
Cosmos 2098 Rocket 3.2 21:20:02 60° ESE 21:20:17 61° E 21:24:24 10° NNE
USA 186 4.3 21:21:05 10° W 21:21:17 10° W 21:21:29 10° W
Cosmos 1825 2.6 21:18:23 10° N 21:21:23 50° NNE 21:21:23 50° NNE
Cosmos 2218 Rocket 3.9 21:22:07 18° S 21:26:59 88° E 21:33:25 10° N
SL-08 R/B 4.4 21:26:47 36° SSE 21:29:28 73° E 21:35:51 10° N
Cosmos 1624 Rocket 3.8 21:32:54 55° S 21:34:04 82° ESE 21:39:15 10° NNE
Cosmos 1933 Rocket 3.8 21:33:06 10° NNW 21:37:26 63° W 21:37:45 61° WSW
Cosmos 1869 3.7 21:38:19 62° NW 21:38:19 62° NW 21:41:58 10° N
Cosmos 2366 rocket 4.0 21:36:09 27° S 21:39:45 81° W 21:46:03 10° N
SL-16 R/B 2.3 21:41:17 55° ENE 21:41:17 55° ENE 21:46:00 10° NNE
Cosmos 1151 Rocket 4.5 21:38:12 16° SW 21:41:09 35° W 21:45:04 10° NNW
Terra 4.2 21:43:59 11° NE 21:43:59 11° NE 21:44:25 10° NE
ARGOS 3.0 21:48:41 85° SE 21:48:49 88° ENE 21:54:12 10° NNW
GEOS 3 Rocket 3.6 21:43:49 10° NNE 21:49:10 85° WNW 21:52:20 25° SW
MetOp-B 4.0 21:53:32 82° NNE 21:53:32 82° NNE 21:58:42 10° NNW
SPOT 5 4.3 21:58:33 26° NNE 21:58:33 26° NNE 22:00:48 10° N
Cosmos 1339 Rocket 4.4 21:55:07 10° N 22:01:13 78° W 22:01:50 70° SSW
ATLAS 2AS CENTAUR R/B 3.3 22:01:10 10° NW 22:08:36 52° WSW 22:10:10 45° SSW
Cosmos 2344 3.4 22:08:24 67° SSE 22:09:14 73° ESE 22:17:10 10° NE
Meteor 2-10 Rocket 4.4 22:08:14 40° SW 22:09:49 52° WNW 22:15:28 10° N
Cosmos 2297 4.3 22:09:41 10° NNW 22:14:04 50° NNE 22:14:04 50° NNE
Cosmos 2369 Rocket 4.4 22:20:24 10° NNE 22:22:03 13° NE 22:22:03 13° NE
H-2A R/B 3.1 22:29:05 40° WNW 22:29:05 40° WNW 22:32:47 10° NNW
ERS-1 Rocket 4.1 22:30:13 40° NW 22:30:13 40° NW 22:33:44 10° NNW
NOSS 3-4 (A) 3.9 22:31:56 10° NNW 22:38:28 75° N 22:38:28 75° N
NOSS 3-4 (C) 3.9 22:32:02 10° NNW 22:38:33 74° N 22:38:33 74° N
USA 267 3.8 22:39:54 10° NE 22:46:12 53° NW 22:52:30 10° WSW
Cosmos 2278 Rocket 4.1 22:43:23 10° NW 22:47:20 22° W 22:47:20 22° W
ATLAS 5 CENTAUR R/B 4.4 22:51:04 10° N 22:54:11 19° NNE 22:54:11 19° NNE
ATLAS 2A CENTAUR R/B 4.3 22:43:52 10° WSW 22:53:55 37° SW 22:53:55 37° SW
USA 234 4.4 23:17:45 34° NNE 23:17:45 34° NNE 23:22:48 10° NNW
Terra 4.4 23:22:51 17° NNW 23:22:51 17° NNW 23:23:57 10° NNW
Cosmos 1943 Rocket 4.4 23:34:47 10° N 23:36:23 19° N 23:36:23 19° N
CZ-4C R/B 4.4 23:43:32 20° N 23:43:32 20° N 23:45:40 10° NNE
